Weather History for Livingston, MT

Change the Weather History Date:

Monday, March 4, 2013

  Actual Average Record
Temperature  
Mean Temperature 18 °F 33 °F  
Max Temperature 27 °F 45 °F 68 °F (1987)
Min Temperature 10 °F 21 °F -11 °F (1989)
Degree Days  
Heating Degree Days 46 32  
Month to date heating degree days 131  
Since 1 July heating degree days 5479  
Cooling Degree Days 0 0  
Month to date cooling degree days 0  
Year to date cooling degree days 0  
Moisture  
Dew Point 8 °F    
Average Humidity 61    
Maximum Humidity 77    
Minimum Humidity 51    
Precipitation  
Precipitation 0.00 in 0.02 in 0.38 in (1995)
Month to date precipitation 0.08  
Year to date precipitation 1.07  
Sea Level Pressure  
Sea Level Pressure 30.31 in    
Wind  
Wind Speed 14 mph (WNW)    
Max Wind Speed 23 mph    
Max Gust Speed 30 mph    
Visibility 10 miles    
Events      
T = Trace of Precipitation, MM = Missing Value Source: NWS Daily Summary

Daily Weather History Graph

Daily Weather History Graph

Search for Another Location

Airport:

Trip Planner

Search our weather history database for the weather conditions in past years. The results will help you decide how hot, cold, wet, or windy it might be!

Date:

Astronomy

Mar. 04, 2013 Rise Set
Actual Time 6:54 AM MST 6:13 PM MST
Civil Twilight 6:24 AM MST 6:42 PM MST
Nautical Twilight 5:50 AM MST 7:17 PM MST
Astronomical Twilight 5:15 AM MST 7:52 PM MST
Moon 1:20 AM MST (3/4) 10:44 AM MST (3/4)
Length of Visible Light 12h 18m
Length of Day
11h 18m
Waning Gibbous, 51% of the Moon is Illuminated
Mar 4
Waning Gibbous
Mar 4
Last Quarter
Mar 11
New
Mar 19
First Quarter
Mar 27
Full

Hourly Weather History & Observations

Time (MST) Temp. Windchill Dew Point Humidity Pressure Visibility Wind Dir Wind Speed Gust Speed Precip Events Conditions
12:53 AM 23.0 °F 8.7 °F 10.9 °F 60% 30.04 in 10.0 mi WNW 18.4 mph 26.5 mph N/A   Overcast
1:53 AM 21.9 °F 5.8 °F 10.0 °F 60% 30.14 in 10.0 mi NNW 23.0 mph 29.9 mph 0.00 in   Overcast
2:53 AM 19.9 °F 3.5 °F 9.0 °F 62% 30.16 in 10.0 mi NW 21.9 mph 28.8 mph 0.00 in   Overcast
3:53 AM 19.9 °F 6.7 °F 10.0 °F 65% 30.17 in 6.0 mi NW 13.8 mph - N/A   Haze
4:53 AM 19.9 °F 12.1 °F 9.0 °F 62% 30.18 in 10.0 mi West 5.8 mph - 0.00 in   Overcast
5:53 AM 19.9 °F 13.4 °F 9.0 °F 62% 30.22 in 10.0 mi West 4.6 mph - N/A   Overcast
6:53 AM 19.0 °F 6.8 °F 7.0 °F 59% 30.27 in 10.0 mi NW 11.5 mph - 0.00 in   Scattered Clouds
7:53 AM 19.9 °F 4.8 °F 5.0 °F 52% 30.28 in 10.0 mi NNW 18.4 mph 26.5 mph N/A   Overcast
8:53 AM 19.9 °F 6.2 °F 6.1 °F 55% 30.30 in 10.0 mi NW 15.0 mph - N/A   Overcast
9:53 AM 21.0 °F 7.1 °F 8.1 °F 57% 30.35 in 10.0 mi NW 16.1 mph - N/A   Overcast
10:53 AM 21.9 °F 9.2 °F 8.1 °F 55% 30.36 in 10.0 mi NW 13.8 mph - N/A   Mostly Cloudy
11:53 AM 21.9 °F 11.7 °F 9.0 °F 58% 30.37 in 10.0 mi West 9.2 mph - N/A   Overcast
12:53 PM 23.0 °F 12.4 °F 10.9 °F 60% 30.36 in 10.0 mi West 10.4 mph - N/A   Overcast
1:53 PM 25.0 °F 13.6 °F 12.0 °F 58% 30.36 in 10.0 mi WNW 12.7 mph - N/A   Overcast
2:53 PM 26.1 °F 13.1 °F 10.0 °F 51% 30.38 in 10.0 mi West 17.3 mph - N/A   Overcast
3:53 PM 27.0 °F 17.3 °F 10.9 °F 51% 30.38 in 10.0 mi WNW 10.4 mph 20.7 mph N/A   Scattered Clouds
4:53 PM 25.0 °F 14.2 °F 10.0 °F 53% 30.38 in 10.0 mi NNW 11.5 mph - N/A   Clear
5:53 PM 21.9 °F 12.5 °F 8.1 °F 55% 30.38 in 10.0 mi NW 8.1 mph - N/A   Clear
6:53 PM 16.0 °F 7.4 °F 6.1 °F 65% 30.41 in 10.0 mi WSW 5.8 mph - N/A   Clear
7:53 PM 14.0 °F 3.9 °F 6.1 °F 71% 30.42 in 10.0 mi South 6.9 mph - N/A   Clear
8:53 PM 12.0 °F 0.5 °F 5.0 °F 73% 30.43 in 10.0 mi South 8.1 mph - N/A   Clear
9:53 PM 10.9 °F - 3.9 °F 73% 30.42 in 10.0 mi Calm Calm - N/A   Clear
10:53 PM 12.9 °F 1.6 °F 7.0 °F 77% 30.40 in 10.0 mi ESE 8.1 mph - N/A   Clear